| time (UTC) | temp F | wind direction | speed MPH | gust MPH | rain 1hr in | rain 24hr in | rain mn in | humidity % | barometer mb |
| 20260510094549 | 72 | 83 | 0.0 | 0.0 | 0.00 | 0.00 | 0.00 | 23 | 1006.4 |
| 20260510093044 | 73 | 83 | 0.0 | 2.0 | 0.00 | 0.00 | 0.00 | 22 | 1006.4 |
| 20260510091538 | 73 | 119 | 0.0 | 0.0 | 0.00 | 0.00 | 0.00 | 22 | 1006.3 |
| 20260510090040 | 74 | 129 | 0.0 | 4.0 | 0.00 | 0.00 | 0.00 | 22 | 1006.2 |
| 20260510084537 | 76 | 127 | 2.0 | 3.0 | 0.00 | 0.00 | 0.00 | 20 | 1006.3 |
| 20260510083036 | 79 | 291 | 0.0 | 0.0 | 0.00 | 0.00 | 0.00 | 17 | 1006.1 |
| 20260510081524 | 79 | 335 | 0.0 | 0.0 | 0.00 | 0.00 | 0.00 | 17 | 1006.1 |
| 20260510080023 | 79 | 326 | 0.0 | 1.0 | 0.00 | 0.00 | 0.00 | 17 | 1006.2 |
| 20260510074521 | 80 | 305 | 0.0 | 3.0 | 0.00 | 0.00 | 0.00 | 17 | 1006.3 |
| 20260510073020 | 80 | 297 | 0.0 | 4.0 | 0.00 | 0.00 | 0.00 | 16 | 1006.3 |
| 20260510071556 | 81 | 354 | 0.0 | 4.0 | 0.00 | 0.00 | 0.00 | 16 | 1006.4 |
| 20260510070046 | 81 | 303 | 1.0 | 4.0 | 0.00 | 0.00 | 0.00 | 16 | 1006.4 |
| 20260510064602 | 82 | 323 | 1.0 | 9.0 | 0.00 | 0.00 | 0.00 | 16 | 1006.3 |
| 20260510063042 | 82 | 293 | 5.0 | 10.0 | 0.00 | 0.00 | 0.00 | 15 | 1006.1 |
| 20260510061543 | 82 | 292 | 4.0 | 7.0 | 0.00 | 0.00 | 0.00 | 16 | 1005.9 |
| 20260510060052 | 81 | 275 | 4.0 | 12.0 | 0.00 | 0.00 | 0.00 | 17 | 1005.7 |
| 20260510054539 | 82 | 290 | 0.0 | 4.0 | 0.00 | 0.00 | 0.00 | 16 | 1005.3 |
| 20260510053041 | 83 | 303 | 1.0 | 5.0 | 0.00 | 0.00 | 0.00 | 15 | 1005.2 |
| 20260510051542 | 86 | 303 | 2.0 | 5.0 | 0.00 | 0.00 | 0.00 | 13 | 1005.0 |
| 20260510050039 | 87 | 310 | 3.0 | 5.0 | 0.00 | 0.00 | 0.00 | 13 | 1004.9 |
| 20260510044506 | 87 | 283 | 4.0 | 9.0 | 0.00 | 0.00 | 0.00 | 13 | 1004.8 |
| 20260510043006 | 87 | 297 | 3.0 | 11.0 | 0.00 | 0.00 | 0.00 | 13 | 1004.6 |
| 20260510041503 | 87 | 305 | 2.0 | 6.0 | 0.00 | 0.00 | 0.00 | 13 | 1004.5 |
| 20260510040003 | 87 | 306 | 3.0 | 9.0 | 0.00 | 0.00 | 0.00 | 13 | 1004.4 |
| 20260510034502 | 86 | 302 | 2.0 | 5.0 | 0.00 | 0.00 | 0.00 | 13 | 1004.1 |
| 20260510033000 | 86 | 304 | 0.0 | 2.0 | 0.00 | 0.00 | 0.00 | 13 | 1004.0 |
| 20260510031601 | 87 | 300 | 0.0 | 2.0 | 0.00 | 0.00 | 0.00 | 13 | 1003.7 |
| 20260510030100 | 86 | 323 | 0.0 | 1.0 | 0.00 | 0.00 | 0.00 | 13 | 1003.6 |
| 20260510024601 | 87 | 300 | 0.0 | 0.0 | 0.00 | 0.00 | 0.00 | 13 | 1003.4 |
| 20260510023057 | 89 | 299 | 1.0 | 5.0 | 0.00 | 0.00 | 0.00 | 12 | 1003.3 |
| 20260510021554 | 91 | 337 | 2.0 | 6.0 | 0.00 | 0.00 | 0.00 | 11 | 1003.2 |
| 20260510020055 | 93 | 292 | 0.0 | 7.0 | 0.00 | 0.00 | 0.00 | 10 | 1003.1 |
| 20260510014553 | 94 | 4 | 3.0 | 11.0 | 0.00 | 0.00 | 0.00 | 10 | 1003.0 |
| 20260510013104 | 95 | 304 | 3.0 | 11.0 | 0.00 | 0.00 | 0.00 | 10 | 1002.9 |
| 20260510011550 | 95 | 302 | 5.0 | 14.0 | 0.00 | 0.00 | 0.00 | 9 | 1002.9 |
| 20260510010101 | 96 | 301 | 6.0 | 13.0 | 0.00 | 0.00 | 0.00 | 9 | 1002.8 |
| 20260510004556 | 96 | 289 | 7.0 | 12.0 | 0.00 | 0.00 | 0.00 | 9 | 1003.0 |
| 20260510003046 | 97 | 299 | 6.0 | 12.0 | 0.00 | 0.00 | 0.00 | 9 | 1003.0 |
| 20260510001516 | 97 | 260 | 9.0 | 16.0 | 0.00 | 0.00 | 0.00 | 9 | 1003.0 |
| 20260510000014 | 97 | 295 | 4.0 | 18.0 | 0.00 | 0.00 | 0.00 | 9 | 1003.2 |
| 20260509234559 | 97 | 41 | 8.0 | 15.0 | 0.00 | 0.00 | 0.00 | 9 | 1003.2 |
| 20260509233041 | 98 | 295 | 3.0 | 9.0 | 0.00 | 0.00 | 0.00 | 9 | 1003.4 |
| 20260509231510 | 98 | 300 | 3.0 | 10.0 | 0.00 | 0.00 | 0.00 | 9 | 1003.5 |
| 20260509230008 | 97 | 278 | 8.0 | 15.0 | 0.00 | 0.00 | 0.00 | 9 | 1003.7 |
| 20260509224504 | 98 | 274 | 8.0 | 16.0 | 0.00 | 0.00 | 0.00 | 10 | 1003.9 |
| 20260509223001 | 96 | 288 | 9.0 | 17.0 | 0.00 | 0.00 | 0.00 | 10 | 1004.1 |
| 20260509221611 | 99 | 323 | 3.0 | 10.0 | 0.00 | 0.00 | 0.00 | 9 | 1004.2 |
| 20260509220106 | 97 | 285 | 6.0 | 13.0 | 0.00 | 0.00 | 0.00 | 9 | 1004.5 |
| 20260509214555 | 98 | 262 | 1.0 | 13.0 | 0.00 | 0.00 | 0.00 | 10 | 1004.6 |
| 20260509213050 | 97 | 352 | 0.0 | 11.0 | 0.00 | 0.00 | 0.00 | 10 | 1004.9 |
| 20260509211548 | 97 | 244 | 6.0 | 12.0 | 0.00 | 0.00 | 0.00 | 10 | 1005.1 |
| 20260509210055 | 95 | 313 | 3.0 | 13.0 | 0.00 | 0.00 | 0.00 | 11 | 1005.4 |
| 20260509204542 | 96 | 285 | 5.0 | 11.0 | 0.00 | 0.00 | 0.00 | 11 | 1005.6 |
| 20260509203044 | 95 | 258 | 7.0 | 15.0 | 0.00 | 0.00 | 0.00 | 11 | 1005.8 |
| 20260509201535 | 95 | 288 | 1.0 | 12.0 | 0.00 | 0.00 | 0.00 | 12 | 1006.1 |
| 20260509200036 | 94 | 276 | 6.0 | 16.0 | 0.00 | 0.00 | 0.00 | 12 | 1006.3 |
| 20260509194531 | 94 | 298 | 7.0 | 17.0 | 0.00 | 0.00 | 0.00 | 12 | 1006.6 |
| 20260509193125 | 94 | 314 | 6.0 | 12.0 | 0.00 | 0.00 | 0.00 | 12 | 1006.7 |
| 20260509191613 | 93 | 307 | 10.0 | 19.0 | 0.00 | 0.00 | 0.00 | 13 | 1006.8 |
| 20260509190110 | 91 | 271 | 9.0 | 16.0 | 0.00 | 0.00 | 0.00 | 14 | 1006.9 |
| 20260509184550 | 91 | 259 | 3.0 | 14.0 | 0.00 | 0.00 | 0.00 | 14 | 1007.1 |
| 20260509183049 | 91 | 258 | 4.0 | 11.0 | 0.00 | 0.00 | 0.00 | 14 | 1007.3 |
| 20260509181548 | 91 | 259 | 2.0 | 9.0 | 0.00 | 0.00 | 0.00 | 15 | 1007.7 |
| 20260509180016 | 90 | 310 | 1.0 | 5.0 | 0.00 | 0.00 | 0.00 | 16 | 1007.9 |
| 20260509174521 | 88 | 307 | 0.0 | 8.0 | 0.00 | 0.00 | 0.00 | 18 | 1008.0 |
| 20260509173012 | 88 | 283 | 2.0 | 4.0 | 0.00 | 0.00 | 0.00 | 18 | 1008.2 |
| 20260509171506 | 86 | 293 | 0.0 | 7.0 | 0.00 | 0.00 | 0.00 | 20 | 1008.3 |
| 20260509170012 | 86 | 213 | 0.0 | 5.0 | 0.00 | 0.00 | 0.00 | 20 | 1008.4 |
| 20260509164505 | 86 | 307 | 0.0 | 0.0 | 0.00 | 0.00 | 0.00 | 21 | 1008.6 |
| 20260509163106 | 84 | 262 | 0.0 | 3.0 | 0.00 | 0.00 | 0.00 | 24 | 1008.7 |
| 20260509161559 | 84 | 255 | 0.0 | 3.0 | 0.00 | 0.00 | 0.00 | 23 | 1008.7 |
| 20260509160058 | 85 | 118 | 0.0 | 3.0 | 0.00 | 0.00 | 0.00 | 22 | 1008.7 |
| 20260509154558 | 84 | 208 | 0.0 | 3.0 | 0.00 | 0.00 | 0.00 | 23 | 1008.7 |
| 20260509153049 | 82 | 114 | 1.0 | 4.0 | 0.00 | 0.00 | 0.00 | 24 | 1008.8 |
| 20260509151548 | 81 | 120 | 0.0 | 4.0 | 0.00 | 0.00 | 0.00 | 24 | 1008.8 |
| 20260509150043 | 79 | 162 | 0.0 | 3.0 | 0.00 | 0.00 | 0.00 | 26 | 1008.9 |
| 20260509144546 | 78 | 117 | 0.0 | 4.0 | 0.00 | 0.00 | 0.00 | 26 | 1008.9 |
| 20260509143036 | 76 | 120 | 0.0 | 2.0 | 0.00 | 0.00 | 0.00 | 29 | 1008.9 |
| 20260509141544 | 74 | 130 | 0.0 | 2.0 | 0.00 | 0.00 | 0.00 | 30 | 1008.8 |
| 20260509140037 | 74 | 120 | 0.0 | 1.0 | 0.00 | 0.00 | 0.00 | 30 | 1008.8 |
| 20260509134548 | 71 | 86 | 0.0 | 3.0 | 0.00 | 0.00 | 0.00 | 32 | 1008.6 |
| 20260509133033 | 67 | 101 | 0.0 | 2.0 | 0.00 | 0.00 | 0.00 | 35 | 1008.4 |
| 20260509131543 | 66 | 88 | 0.0 | 2.0 | 0.00 | 0.00 | 0.00 | 37 | 1008.4 |
| 20260509130041 | 64 | 117 | 0.0 | 3.0 | 0.00 | 0.00 | 0.00 | 39 | 1008.2 |
| 20260509124530 | 64 | 96 | 0.0 | 0.0 | 0.00 | 0.00 | 0.00 | 39 | 1008.0 |
| 20260509123026 | 64 | 106 | 0.0 | 2.0 | 0.00 | 0.00 | 0.00 | 37 | 1007.9 |
| 20260509121522 | 64 | 113 | 0.0 | 0.0 | 0.00 | 0.00 | 0.00 | 38 | 1007.9 |
| 20260509120017 | 64 | 138 | 0.0 | 0.0 | 0.00 | 0.00 | 0.00 | 39 | 1007.7 |
| 20260509114514 | 67 | 138 | 0.0 | 0.0 | 0.00 | 0.00 | 0.00 | 35 | 1007.6 |
| 20260509113009 | 69 | 102 | 0.0 | 0.0 | 0.00 | 0.00 | 0.00 | 31 | 1007.6 |
| 20260509111507 | 69 | 102 | 0.0 | 0.0 | 0.00 | 0.00 | 0.00 | 31 | 1007.6 |
| 20260509110015 | 69 | 102 | 0.0 | 1.0 | 0.00 | 0.00 | 0.00 | 30 | 1007.4 |
| 20260509104506 | 70 | 93 | 0.0 | 0.0 | 0.00 | 0.00 | 0.00 | 30 | 1007.4 |
| 20260509103034 | 69 | 109 | 0.0 | 0.0 | 0.00 | 0.00 | 0.00 | 30 | 1007.3 |
| 20260509101534 | 69 | 108 | 0.0 | 3.0 | 0.00 | 0.00 | 0.00 | 30 | 1007.5 |
| 20260509100035 | 69 | 108 | 0.0 | 1.0 | 0.00 | 0.00 | 0.00 | 30 | 1007.5 |